Location: Kapla
(46.2483°N, 15.0094°E)
Time: 17:56:57
(UTC+00:00)

Cosmos 2219 Rocket - Pass Details

Date: 03 March 2021
Orbit: 826 x 848 km, 71.0° (Epoch: 14 April)

Event Time Altitude Azimuth Distance (km) Brightness Sun altitude
Rises 17:41:52 0° 158° (SSE) 3,352 5.1 -9.9°
Reaches altitude 10° 17:45:02 10° 140° (SE) 2,427 4.2 -10.5°
Maximum altitude 17:48:39 18° 99° (E) 1,937 3.4 -11.1°
Drops below altitude 10° 17:52:16 10° 58° (ENE) 2,445 4.1 -11.7°
Enters shadow 17:53:37 - 49° (NE) 2,810 4.5 -11.9°
Exits shadow 17:55:23 - 41° (NE) 3,363 5.0 -12.2°
Sets 17:55:27 0° 40° (NE) 3,388 5.0 -12.3°
